SCP
0 0 0 0 0 0 0 0 0 0 0 0 0 1 1 1 1 1 1 1 2 2 1 2 2 2 2 1 1 1 1 2 2 2 1 1 1 1 1 1 1 1 1 1 1 1 0 0 0
0 0 0 0 0 0 0 0 0 0 0 0 0 1 1 1 1 1 1 1 2 2 2 2 2 2 2 2 1 1 1 2 2 1 1 1 1 1 1 1 1 1 1 1 1 1 0 0 0
0 0 0 0 0 0 0 0 0 0 0 0 1 1 1 1 1 1 1 2 2 2 2 2 2 3 2 2 1 1 1 1 1 1 1 1 1 1 1 1 1 1 1 1 0 0 0 0 0
0 0 0 0 0 0 0 0 0 0 0 0 1 2 2 2 2 2 2 3 3 2 2 2 2 3 2 2 2 1 1 1 1 1 1 1 1 1 1 1 1 1 1 0 0 0 0 0 0
0 0 0 0 0 0 0 0 0 0 0 1 2 2 2 3 3 4 4 4 3 3 3 3 3 3 3 2 2 2 2 2 2 2 2 2 2 2 1 1 1 1 1 1 0 0 0 0 0
0 0 0 0 0 0 0 0 0 0 0 1 3 3 4 4 5 6 6 5 4 4 3 3 3 3 3 3 2 2 2 2 2 2 2 2 2 2 2 1 1 1 1 1 1 1 1 0 0
0 0 0 0 0 0 0 0 0 0 0 1 3 4 4 5 6 7 7 6 5 4 4 3 3 4 4 3 3 2 2 2 2 2 2 2 2 2 2 1 1 1 1 1 1 1 1 1 0
0 0 0 0 0 0 0 0 0 0 0 1 3 4 5 6 7 8 8 6 5 5 4 4 3 4 5 5 4 3 3 2 2 2 2 2 2 2 1 1 1 1 1 1 1 1 1 1 1
0 0 0 0 0 0 0 0 0 0 0 1 3 3 5 7 9 9 10 9 7 6 5 4 4 4 5 5 4 3 3 2 2 2 2 2 2 1 1 1 1 1 1 1 1 1 1 1 1
0 0 0 0 0 0 0 0 0 0 0 2 3 4 6 8 10 11 12 10 8 6 5 4 4 4 4 4 4 4 3 3 2 2 2 2 2 1 1 1 1 1 1 1 1 1 1 1 1
0 0 0 0 0 0 0 0 0 0 1 2 4 5 7 9 11 12 11 10 8 7 5 4 4 4 4 4 4 4 4 4 3 3 3 3 2 2 1 1 1 1 1 1 1 1 1 1 0
0 0 0 0 0 0 0 0 0 1 2 3 5 6 8 9 10 10 10 10 10 8 6 5 4 5 5 5 5 5 5 4 3 3 3 3 2 1 1 1 1 1 1 1 1 1 1 0 0
0 0 0 0 0 0 0 0 0 1 3 4 6 7 8 8 8 8 9 11 11 9 6 6 6 6 6 7 6 5 4 4 3 3 3 3 2 1 1 1 2 2 1 1 1 1 1 0 0
0 0 0 0 0 0 0 0 1 2 4 5 7 8 8 8 7 7 9 10 10 9 8 7 6 6 6 7 6 4 3 3 2 2 2 2 2 1 1 2 2 2 2 1 1 1 1 1 1
0 0 0 0 0 0 0 0 1 3 4 5 7 9 8 7 6 7 9 10 10 9 8 7 5 5 6 6 6 4 3 2 2 2 2 1 1 2 2 2 2 2 2 2 1 1 1 1 1
0 0 0 0 0 0 0 1 2 3 4 5 7 8 7 6 6 8 10 11 11 9 8 6 5 4 5 6 6 4 3 2 2 2 1 1 1 1 2 2 1 1 1 2 2 2 1 1 1
0 0 0 0 0 0 0 1 2 4 4 5 6 6 6 7 7 8 9 11 11 10 8 7 5 5 5 5 5 5 4 3 2 2 1 1 1 1 1 1 1 1 1 2 2 2 2 1 1
0 0 0 0 0 0 1 1 3 4 5 5 5 5 6 7 8 9 9 10 11 10 8 7 6 5 5 5 6 5 5 4 2 2 2 2 1 1 1 1 1 1 1 1 2 2 2 2 1
0 0 0 0 0 0 1 2 3 4 5 6 5 6 7 8 9 9 10 10 10 9 8 7 6 6 5 5 6 6 6 4 3 2 2 2 2 1 1 1 1 1 1 1 1 2 2 2 2
0 0 0 0 0 1 1 2 3 4 5 6 6 7 8 10 9 9 9 9 8 6 6 7 7 6 5 5 6 6 6 5 3 2 2 2 1 1 1 1 1 1 1 1 1 1 2 1 1
0 0 0 0 0 0 1 2 2 3 4 5 6 7 8 9 8 7 7 6 5 4 4 5 5 5 5 5 6 6 6 5 4 3 2 2 1 1 1 2 2 1 1 1 1 1 1 1 1
0 0 0 0 0 0 0 1 2 2 3 4 5 6 7 6 6 5 5 4 4 3 3 3 3 4 4 5 6 6 6 5 4 2 2 2 2 2 2 2 2 1 1 1 1 1 1 1 0
0 0 0 0 0 0 0 0 1 1 3 4 5 5 5 5 4 3 3 3 2 2 2 2 2 3 3 4 4 4 4 4 3 2 2 1 1 1 2 2 2 1 1 1 1 1 0 0 0
0 0 0 0 0 0 0 0 0 1 2 4 5 5 4 3 3 2 2 1 1 1 1 1 2 3 3 3 3 3 2 2 2 2 2 1 1 1 1 1 1 1 1 1 0 0 0 0 0
0 0 0 0 0 0 0 0 0 1 2 3 4 3 2 2 2 1 1 1 0 0 1 1 2 2 3 3 3 2 1 1 1 1 1 1 0 0 0 0 0 0 0 0 0 0 0 0 0
0 0 0 0 0 0 0 0 1 1 2 3 3 2 2 1 1 1 0 0 0 0 0 0 1 2 2 3 2 1 0 0 0 0 0 0 0 0 0 0 0 0 0 0 0 0 0 0 0
0 0 0 0 0 0 0 0 1 1 2 2 2 2 2 1 0 0 0 0 0 0 0 0 0 1 1 1 1 0 0 0 0 0 0 0 0 0 0 0 0 0 0 0 0 0 0 0 0
0 0 0 0 0 0 0 0 1 1 1 2 2 2 1 1 0 0 0 0 0 0 0 0 0 0 0 0 0 0 0 0 0 0 0 0 0 0 0 0 0 0 0 0 0 0 0 0 0
0 0 0 0 0 0 0 0 0 1 1 1 1 1 1 0 0 0 0 0 0 0 0 0 0 0 0 0 0 0 0 0 0 0 0 0 0 0 0 0 0 0 0 0 0 0 0 0 0
0 0 0 0 0 0 0 0 0 0 1 1 1 1 0 0 0 0 0 0 0 0 0 0 0 0 0 0 0 0 0 0 0 0 0 0 0 0 0 0 0 0 0 0 0 0 0 0 0
Wind_Speed
5 4 1 3 5 3 5 8 4 6 4 2 4 7 8 6 6 5 3 13 14 16 14 17 18 18 18 17 16 16 17 17 17 17 16 16 16 16 15 15 14 14 14 14 14 14 14 14 14
3 2 3 4 4 1 8 7 6 10 7 3 5 7 7 4 4 8 7 13 17 17 14 15 18 19 19 18 17 17 17 17 17 16 16 16 15 15 14 14 14 13 13 13 13 13 13 13 13
3 0 3 3 3 6 8 6 5 6 5 4 4 4 6 8 8 10 10 18 16 15 13 15 20 19 19 19 18 17 17 17 16 16 16 16 15 14 13 14 14 13 13 12 12 12 12 12 11
1 4 4 2 7 9 9 11 8 9 7 3 5 5 4 7 10 11 18 20 18 15 12 15 20 20 19 19 19 18 17 17 17 16 16 15 15 14 13 14 14 13 13 12 12 11 11 10 10
3 4 2 3 9 9 9 13 12 11 9 5 6 6 3 3 11 18 21 20 19 14 11 14 18 19 19 19 19 18 18 17 16 16 16 15 14 13 13 13 13 13 12 12 12 11 10 9 8
4 4 3 5 9 10 9 11 12 13 9 5 7 7 3 5 15 18 18 17 16 16 13 12 17 19 19 19 18 17 17 16 16 15 15 14 14 13 13 13 13 12 12 12 12 11 10 8 7
4 3 4 5 7 10 13 10 8 7 4 4 7 8 4 5 11 16 16 16 14 15 13 10 11 14 17 17 17 17 16 16 15 15 14 14 14 14 14 13 12 12 12 12 11 11 10 8 6
5 3 3 4 5 10 9 8 6 1 2 2 6 9 7 8 10 13 14 13 13 11 11 11 10 10 9 10 16 17 16 16 16 16 16 15 15 14 14 11 11 12 12 12 11 10 9 8 6
4 3 5 6 5 9 9 8 9 5 4 4 4 6 10 15 15 15 13 11 10 10 8 8 8 8 8 8 12 14 15 14 15 14 16 13 7 7 8 11 12 13 12 12 11 10 9 8 6
5 4 10 8 7 7 8 5 6 8 7 5 6 7 14 16 16 17 16 14 12 11 9 8 9 8 8 8 7 6 7 7 6 5 7 5 4 4 7 9 13 13 12 11 11 10 9 6 2
5 8 10 11 13 7 5 5 4 4 4 2 4 9 12 12 12 13 14 14 13 12 11 9 9 9 8 5 6 4 3 4 5 6 6 5 4 4 4 3 6 6 8 5 6 6 3 3 3
4 9 10 12 12 5 4 2 3 2 2 1 5 10 10 9 10 10 10 10 10 9 9 9 9 9 8 6 5 5 4 4 4 5 6 5 4 4 3 3 4 3 3 3 3 3 3 4 4
6 11 13 15 11 6 4 3 2 3 3 2 6 8 9 9 8 8 9 10 9 8 7 8 8 8 7 6 5 5 4 4 4 4 5 5 4 4 4 3 4 4 3 3 3 3 4 4 4
7 7 10 9 7 4 3 4 2 5 2 3 6 7 8 9 9 9 9 9 9 7 7 7 7 7 6 5 6 5 4 4 4 3 4 5 4 4 4 4 4 4 4 4 3 4 4 3 3
3 6 8 5 3 3 1 5 5 7 1 3 4 7 8 7 8 8 8 9 9 8 8 7 8 7 7 7 7 5 4 4 4 4 4 4 3 4 4 4 5 4 4 4 3 3 2 3 3
6 5 5 9 4 5 3 7 9 3 5 4 5 7 9 9 9 7 7 6 7 7 6 7 7 7 8 7 6 5 5 4 4 3 3 4 4 4 4 4 4 4 4 4 4 3 3 3 3
4 3 6 11 7 5 6 6 7 1 8 8 8 9 11 12 11 8 7 6 5 5 5 6 5 6 6 6 5 5 5 4 3 3 3 3 3 3 3 3 3 4 3 3 4 4 4 5 5
5 4 6 8 8 2 5 5 3 3 10 10 10 11 12 13 10 9 9 8 7 5 3 3 3 4 5 4 4 3 3 3 2 2 2 2 2 2 2 3 3 3 3 3 3 4 4 5 6
6 7 9 10 5 2 4 4 0 4 9 10 11 11 11 10 8 10 10 9 9 8 6 3 2 2 3 3 4 4 3 2 1 1 1 1 1 1 1 2 3 3 3 4 5 5 6 5 6
8 9 9 8 5 2 3 4 3 6 7 9 11 11 10 9 9 10 11 10 10 9 7 5 3 2 2 3 3 3 4 4 3 2 3 3 2 1 1 2 3 3 3 4 5 5 4 3 4
8 6 6 5 4 5 4 4 3 6 9 10 10 9 9 9 9 9 10 9 9 8 7 6 6 5 3 3 4 4 4 3 3 3 3 4 3 3 2 2 2 2 3 3 4 5 5 4 2
7 7 4 2 2 3 2 1 1 2 5 7 7 7 9 9 9 9 9 9 9 8 7 6 6 6 4 3 4 6 4 4 3 4 4 5 5 5 5 4 4 3 2 3 3 3 4 5 4
7 5 1 1 1 2 4 3 3 1 2 4 5 7 8 8 9 9 9 9 9 8 7 6 7 8 6 5 5 6 6 5 5 5 7 6 6 7 7 6 6 5 4 4 4 4 4 3 4
3 3 5 5 5 2 3 2 3 2 3 4 6 7 7 8 9 10 9 9 9 8 7 7 8 8 8 7 6 6 8 8 9 7 6 6 5 6 8 8 7 7 6 5 5 5 6 5 6
3 6 4 5 5 4 2 2 3 2 1 7 9 8 7 8 9 9 9 9 9 9 9 8 8 8 8 8 8 8 9 8 8 7 7 6 5 5 7 7 7 7 7 7 7 8 8 7 8
1 7 7 4 4 4 2 1 2 1 4 8 10 10 10 8 9 9 9 8 8 9 9 8 8 8 8 9 9 9 9 7 7 8 7 7 6 5 6 8 8 8 8 8 8 8 8 8 8
1 2 6 7 2 0 1 0 1 3 6 8 9 10 9 8 8 8 8 8 7 8 8 8 8 9 9 9 9 9 9 9 9 8 8 6 6 6 7 8 9 8 8 8 8 7 7 8 8
3 3 5 5 3 2 3 3 4 5 7 8 9 9 9 8 8 7 7 7 7 7 7 8 8 8 9 8 8 8 9 9 9 9 9 8 7 7 8 8 8 8 8 8 8 7 7 9 7
2 2 4 4 4 5 3 5 4 8 9 10 10 10 9 9 8 7 6 7 6 7 7 8 8 8 9 8 8 9 9 9 9 8 8 7 7 7 7 7 7 8 7 7 7 8 8 9 8
2 3 4 4 3 5 4 5 2 5 8 11 12 11 10 9 8 8 7 6 6 7 7 7 7 8 8 8 8 9 9 9 9 8 7 7 7 7 7 7 8 8 7 7 7 8 9 9 9
Wind_Direction
304 289 155 62 53 38 254 250 256 296 289 210 131 119 125 136 157 184 176 151 147 151 159 161 158 153 149 145 141 137 133 130 127 124 120 119 118 118 119 119 121 122 124 125 125 123 122 121 121
305 299 59 65 93 263 267 253 254 256 238 173 117 120 110 96 125 127 131 155 151 152 156 162 160 156 152 149 145 143 140 137 134 131 128 126 124 123 123 123 124 125 125 127 126 125 124 124 124
279 244 92 94 167 202 246 263 264 283 250 183 140 122 125 143 143 149 158 152 147 151 156 162 161 158 155 152 150 148 146 144 142 139 136 133 131 129 129 130 130 130 130 130 130 128 128 128 127
38 51 55 104 243 236 236 268 288 292 278 223 129 109 118 158 159 152 144 147 146 151 156 161 162 159 157 156 155 154 153 152 149 147 144 141 139 137 137 137 137 136 136 136 135 134 134 133 131
69 82 69 276 260 262 261 267 271 262 249 218 136 129 124 141 132 136 144 148 148 148 151 159 161 160 160 160 159 159 158 157 155 153 151 148 146 144 143 142 142 142 143 143 142 142 141 140 137
55 75 116 249 265 277 277 268 267 253 239 201 137 128 136 131 133 143 145 145 146 146 147 154 161 163 164 164 163 162 162 162 160 158 156 153 151 150 149 148 148 149 149 150 148 148 148 147 146
123 117 200 238 274 286 283 285 268 242 204 185 142 121 127 147 146 144 142 139 139 142 144 149 160 165 167 167 165 165 165 164 163 161 159 158 157 156 155 154 154 155 155 155 156 157 158 159 160
151 110 265 267 274 278 287 310 312 286 177 142 118 132 162 172 137 129 130 131 132 136 144 150 158 159 161 167 170 168 168 168 166 166 165 165 165 163 163 160 160 162 164 165 167 170 172 175 179
119 89 257 254 253 269 301 323 327 341 39 49 85 143 154 141 129 125 125 122 129 137 142 147 154 156 157 161 174 171 172 173 170 171 171 167 166 163 165 169 170 171 173 175 176 180 184 189 200
120 175 237 233 230 260 291 301 326 11 17 27 51 91 129 137 139 143 147 147 150 154 155 153 155 157 156 168 166 166 172 170 168 169 170 162 157 168 170 178 181 180 181 184 187 191 195 199 210
177 209 242 255 253 251 272 307 348 32 4 11 125 134 140 140 144 149 153 155 158 159 158 159 161 159 159 162 161 163 164 163 166 167 163 158 159 172 174 175 186 184 186 186 194 197 199 202 211
232 255 249 257 261 252 249 293 340 7 261 286 135 140 135 133 138 146 144 146 145 151 162 160 164 164 165 157 163 162 162 167 173 177 173 168 170 177 175 182 183 177 177 181 187 192 204 221 228
241 257 262 257 261 254 258 272 275 292 284 29 82 110 122 126 130 134 131 135 136 144 153 165 163 163 160 148 159 161 162 168 173 180 185 181 178 180 177 181 179 182 178 181 190 195 203 216 220
249 268 275 267 259 254 251 281 319 270 267 49 71 95 109 118 123 123 131 136 139 147 162 166 161 155 147 151 159 164 163 157 160 169 183 187 186 182 176 179 183 189 189 187 187 194 198 200 186
311 317 307 292 274 262 18 318 281 253 109 83 77 95 97 98 106 121 136 143 147 159 164 162 157 151 153 166 163 157 158 159 166 174 183 186 185 184 188 186 189 198 194 184 180 183 181 172 147
356 345 311 298 296 274 146 257 271 262 113 121 106 97 88 78 84 94 108 123 142 146 158 160 160 159 158 162 160 153 149 159 170 174 177 183 184 186 188 193 198 193 188 179 177 170 158 149 128
351 306 286 293 275 241 167 223 267 268 114 112 103 94 84 74 64 64 83 91 105 119 146 151 147 148 149 156 153 146 145 156 166 171 168 183 184 181 177 190 195 180 175 178 179 162 156 141 127
255 270 285 281 283 213 167 204 241 47 100 103 96 91 84 73 61 55 59 66 72 70 78 108 121 132 139 137 126 123 128 132 144 157 158 176 171 176 180 180 185 173 162 168 162 159 156 141 131
250 277 283 280 286 99 147 155 122 79 96 98 97 94 88 79 67 58 53 50 55 46 43 53 71 124 140 148 145 143 142 124 103 101 105 114 117 140 167 174 167 168 167 166 163 153 143 138 128
252 262 274 294 322 70 116 92 58 75 93 109 110 103 94 84 66 57 50 42 45 45 26 27 19 59 108 135 143 131 123 100 83 71 66 59 61 77 165 148 159 163 157 155 155 148 142 148 151
261 245 255 274 330 21 81 47 36 58 78 83 89 98 95 88 72 58 56 44 41 39 24 29 25 41 63 105 117 111 102 96 83 58 54 37 50 52 58 91 124 144 151 154 160 158 153 158 145
263 261 261 291 33 319 74 201 303 91 76 81 86 85 87 81 72 63 55 45 35 28 23 27 31 42 43 72 111 122 119 115 100 89 74 51 44 50 54 62 72 87 110 132 147 149 149 153 154
234 254 278 306 95 26 12 109 283 35 100 115 104 93 88 87 80 67 57 50 38 26 24 25 42 47 45 61 91 107 107 108 106 99 92 74 52 49 52 56 62 65 73 88 96 102 110 125 138
214 32 19 38 63 21 288 135 275 270 228 150 114 99 91 85 78 69 58 50 40 31 27 29 43 48 47 59 74 96 111 116 115 107 96 80 63 50 50 56 60 62 62 68 76 83 89 90 95
78 81 26 356 8 266 263 126 242 294 108 136 127 112 95 86 79 69 57 48 39 33 30 34 46 52 51 59 69 83 94 98 100 98 91 85 72 59 50 55 58 61 62 64 67 73 75 81 87
200 134 157 201 227 264 329 186 232 59 93 112 117 113 98 83 78 72 62 53 43 35 31 35 47 54 56 62 70 75 84 88 85 82 84 80 77 70 64 64 63 61 63 67 69 71 70 72 77
149 189 171 146 162 162 275 248 247 117 117 127 124 116 108 98 84 75 66 58 50 42 36 36 49 57 58 62 71 74 79 86 88 84 81 81 78 77 71 70 69 64 64 66 71 74 74 76 73
144 160 81 103 141 245 275 233 221 186 170 149 134 124 113 103 92 83 72 63 55 50 46 47 51 58 60 64 72 80 77 80 84 83 79 78 76 74 75 74 71 68 65 65 69 71 69 74 69
21 65 101 116 151 160 230 256 225 190 175 158 144 135 127 118 110 97 83 72 63 56 52 53 54 59 63 66 73 77 78 79 80 81 81 81 78 73 73 73 71 68 65 64 71 73 71 72 68
161 158 146 152 209 174 183 253 311 160 149 144 140 137 130 121 112 104 94 84 72 64 59 59 60 64 64 68 75 77 77 79 80 79 75 75 76 72 72 71 67 65 64 63 71 79 74 75 73